| time (UTC) | temp F | wind direction | speed MPH | gust MPH | rain 1hr in | rain 24hr in | rain mn in | humidity % | barometer mb |
| 20260506211535 | 52 | 335 | 4.0 | 9.0 | 0.00 | 0.00 | 0.00 | 82 | 1009.8 |
| 20260506210033 | 51 | 360 | 0.0 | 4.0 | 0.00 | 0.00 | 0.00 | 83 | 1009.8 |
| 20260506204532 | 51 | 17 | 2.0 | 4.0 | 0.00 | 0.00 | 0.00 | 83 | 1009.7 |
| 20260506203033 | 49 | 344 | 1.0 | 4.0 | 0.00 | 0.00 | 0.00 | 85 | 1009.8 |
| 20260506201530 | 48 | 320 | 0.0 | 3.0 | 0.00 | 0.00 | 0.00 | 89 | 1009.7 |
| 20260506200028 | 48 | 319 | 0.0 | 2.0 | 0.00 | 0.00 | 0.00 | 91 | 1009.7 |
| 20260506194527 | 48 | 320 | 0.0 | 1.0 | 0.00 | 0.00 | 0.00 | 91 | 1009.9 |
| 20260506193025 | 48 | 319 | 0.0 | 0.0 | 0.00 | 0.00 | 0.00 | 91 | 1009.9 |
| 20260506191524 | 49 | 319 | 0.0 | 0.0 | 0.00 | 0.00 | 0.00 | 91 | 1009.7 |
| 20260506190022 | 49 | 319 | 0.0 | 1.0 | 0.00 | 0.00 | 0.00 | 90 | 1009.6 |
| 20260506184538 | 49 | 320 | 0.0 | 1.0 | 0.00 | 0.00 | 0.00 | 91 | 1009.2 |
| 20260506183029 | 50 | 320 | 0.0 | 0.0 | 0.00 | 0.00 | 0.00 | 92 | 1009.0 |
| 20260506181525 | 50 | 320 | 0.0 | 1.0 | 0.00 | 0.00 | 0.00 | 92 | 1009.1 |
| 20260506180017 | 50 | 320 | 0.0 | 1.0 | 0.00 | 0.00 | 0.00 | 91 | 1009.2 |
| 20260506174518 | 50 | 320 | 0.0 | 0.0 | 0.00 | 0.00 | 0.00 | 91 | 1009.4 |
| 20260506173011 | 51 | 320 | 0.0 | 1.0 | 0.00 | 0.00 | 0.00 | 90 | 1009.4 |
| 20260506171510 | 51 | 320 | 0.0 | 0.0 | 0.00 | 0.00 | 0.00 | 91 | 1009.6 |
| 20260506170007 | 52 | 320 | 0.0 | 1.0 | 0.00 | 0.00 | 0.00 | 90 | 1009.5 |
| 20260506164508 | 53 | 320 | 0.0 | 1.0 | 0.00 | 0.00 | 0.00 | 90 | 1009.7 |
| 20260506163002 | 53 | 320 | 0.0 | 1.0 | 0.00 | 0.00 | 0.00 | 90 | 1009.9 |
| 20260506161559 | 54 | 319 | 0.0 | 0.0 | 0.00 | 0.00 | 0.00 | 90 | 1010.1 |
| 20260506160107 | 55 | 320 | 0.0 | 1.0 | 0.00 | 0.00 | 0.00 | 89 | 1010.2 |
| 20260506154600 | 55 | 320 | 0.0 | 0.0 | 0.00 | 0.00 | 0.00 | 88 | 1010.3 |
| 20260506153109 | 56 | 320 | 0.0 | 2.0 | 0.00 | 0.00 | 0.00 | 89 | 1010.4 |
| 20260506151547 | 57 | 319 | 0.0 | 2.0 | 0.00 | 0.00 | 0.00 | 88 | 1010.5 |
| 20260506150053 | 58 | 319 | 0.0 | 3.0 | 0.00 | 0.00 | 0.00 | 87 | 1010.6 |
| 20260506144553 | 58 | 318 | 0.0 | 2.0 | 0.00 | 0.00 | 0.00 | 86 | 1010.6 |
| 20260506143041 | 59 | 318 | 0.0 | 3.0 | 0.00 | 0.00 | 0.00 | 85 | 1010.7 |
| 20260506141539 | 59 | 15 | 0.0 | 1.0 | 0.00 | 0.00 | 0.00 | 86 | 1010.9 |
| 20260506140037 | 59 | 15 | 0.0 | 3.0 | 0.00 | 0.00 | 0.00 | 86 | 1010.7 |
| 20260506134536 | 59 | 17 | 2.0 | 5.0 | 0.00 | 0.00 | 0.00 | 86 | 1010.7 |
| 20260506133034 | 59 | 350 | 2.0 | 4.0 | 0.00 | 0.00 | 0.00 | 86 | 1010.7 |
| 20260506131539 | 60 | 14 | 2.0 | 5.0 | 0.00 | 0.00 | 0.00 | 86 | 1010.8 |
| 20260506130032 | 60 | 348 | 2.0 | 4.0 | 0.00 | 0.00 | 0.00 | 86 | 1010.9 |
| 20260506124530 | 60 | 336 | 2.0 | 4.0 | 0.00 | 0.00 | 0.00 | 85 | 1011.1 |
| 20260506123029 | 61 | 319 | 2.0 | 4.0 | 0.00 | 0.00 | 0.00 | 84 | 1011.4 |
| 20260506121525 | 61 | 319 | 2.0 | 6.0 | 0.00 | 0.00 | 0.00 | 84 | 1011.8 |
| 20260506120026 | 61 | 323 | 2.0 | 4.0 | 0.00 | 0.00 | 0.00 | 85 | 1011.9 |
| 20260506114528 | 61 | 321 | 0.0 | 4.0 | 0.00 | 0.00 | 0.00 | 85 | 1012.0 |
| 20260506113036 | 61 | 338 | 2.0 | 4.0 | 0.00 | 0.00 | 0.00 | 86 | 1012.0 |
| 20260506111527 | 61 | 13 | 1.0 | 2.0 | 0.00 | 0.00 | 0.00 | 85 | 1012.0 |
| 20260506110024 | 61 | 17 | 0.0 | 3.0 | 0.00 | 0.00 | 0.00 | 84 | 1012.1 |
| 20260506104525 | 61 | 18 | 1.0 | 3.0 | 0.00 | 0.00 | 0.00 | 86 | 1012.2 |
| 20260506103026 | 61 | 22 | 0.0 | 0.0 | 0.00 | 0.00 | 0.00 | 85 | 1012.3 |
| 20260506101523 | 62 | 22 | 0.0 | 1.0 | 0.00 | 0.00 | 0.00 | 83 | 1012.2 |
| 20260506100022 | 62 | 22 | 0.0 | 0.0 | 0.00 | 0.00 | 0.00 | 82 | 1012.1 |
| 20260506094522 | 63 | 22 | 0.0 | 0.0 | 0.00 | 0.00 | 0.00 | 80 | 1012.2 |
| 20260506093021 | 64 | 22 | 0.0 | 2.0 | 0.00 | 0.00 | 0.00 | 79 | 1012.0 |
| 20260506091520 | 64 | 22 | 1.0 | 5.0 | 0.00 | 0.00 | 0.00 | 79 | 1012.1 |
| 20260506090023 | 64 | 57 | 0.0 | 3.0 | 0.00 | 0.00 | 0.00 | 79 | 1012.1 |
| 20260506084520 | 64 | 71 | 0.0 | 3.0 | 0.00 | 0.00 | 0.00 | 78 | 1012.1 |
| 20260506083020 | 65 | 63 | 1.0 | 4.0 | 0.00 | 0.00 | 0.00 | 77 | 1012.1 |
| 20260506081520 | 65 | 73 | 0.0 | 4.0 | 0.00 | 0.00 | 0.00 | 74 | 1012.1 |
| 20260506073019 | 68 | 57 | 1.0 | 4.0 | 0.00 | 0.00 | 0.00 | 67 | 1012.0 |
| 20260506071518 | 70 | 32 | 0.0 | 4.0 | 0.00 | 0.00 | 0.00 | 64 | 1011.9 |
| 20260506061513 | 74 | 46 | 1.0 | 5.0 | 0.00 | 0.00 | 0.00 | 51 | 1012.0 |
| 20260506044503 | 74 | 286 | 0.0 | 5.0 | 0.00 | 0.00 | 0.00 | 50 | 1012.7 |
| 20260506043003 | 76 | 278 | 1.0 | 7.0 | 0.00 | 0.00 | 0.00 | 49 | 1012.8 |
| 20260506041605 | 75 | 298 | 4.0 | 9.0 | 0.00 | 0.00 | 0.00 | 50 | 1012.9 |
| 20260506040058 | 76 | 344 | 3.0 | 7.0 | 0.00 | 0.00 | 0.00 | 50 | 1013.2 |
| 20260506034613 | 76 | 269 | 1.0 | 5.0 | 0.00 | 0.00 | 0.00 | 50 | 1013.3 |
| 20260506033053 | 75 | 38 | 0.0 | 4.0 | 0.00 | 0.00 | 0.00 | 51 | 1013.5 |
| 20260506031550 | 74 | 215 | 1.0 | 5.0 | 0.00 | 0.00 | 0.00 | 54 | 1013.8 |
| 20260506030047 | 74 | 26 | 0.0 | 8.0 | 0.00 | 0.00 | 0.00 | 53 | 1014.1 |
| 20260506024602 | 72 | 316 | 1.0 | 5.0 | 0.00 | 0.00 | 0.00 | 56 | 1014.3 |
| 20260506023041 | 72 | 306 | 2.0 | 4.0 | 0.00 | 0.00 | 0.00 | 54 | 1014.7 |
| 20260506021537 | 72 | 315 | 3.0 | 6.0 | 0.00 | 0.00 | 0.00 | 55 | 1015.0 |
| 20260506020033 | 71 | 325 | 1.0 | 6.0 | 0.00 | 0.00 | 0.00 | 55 | 1015.3 |
| 20260506014531 | 71 | 306 | 1.0 | 5.0 | 0.00 | 0.00 | 0.00 | 56 | 1015.5 |
| 20260506013038 | 70 | 262 | 2.0 | 4.0 | 0.00 | 0.00 | 0.00 | 56 | 1015.8 |
| 20260506011521 | 68 | 250 | 0.0 | 4.0 | 0.00 | 0.00 | 0.00 | 58 | 1016.2 |
| 20260506010023 | 67 | 219 | 1.0 | 4.0 | 0.00 | 0.00 | 0.00 | 60 | 1016.4 |
| 20260506004514 | 66 | 224 | 1.0 | 4.0 | 0.00 | 0.00 | 0.00 | 62 | 1016.5 |
| 20260506003012 | 65 | 225 | 1.0 | 3.0 | 0.00 | 0.00 | 0.00 | 63 | 1016.8 |
| 20260506001509 | 64 | 221 | 1.0 | 4.0 | 0.00 | 0.00 | 0.00 | 64 | 1016.9 |
| 20260506000005 | 63 | 254 | 2.0 | 4.0 | 0.00 | 0.00 | 0.00 | 66 | 1017.1 |
| 20260505234504 | 61 | 245 | 2.0 | 6.0 | 0.00 | 0.00 | 0.00 | 69 | 1017.1 |
| 20260505233057 | 60 | 261 | 2.0 | 5.0 | 0.00 | 0.00 | 0.00 | 69 | 1017.1 |
| 20260505231553 | 59 | 225 | 1.0 | 4.0 | 0.00 | 0.00 | 0.00 | 73 | 1017.2 |
| 20260505230101 | 57 | 286 | 1.0 | 4.0 | 0.00 | 0.00 | 0.00 | 77 | 1017.1 |
| 20260505224547 | 56 | 243 | 1.0 | 3.0 | 0.00 | 0.00 | 0.00 | 79 | 1017.1 |
| 20260505223053 | 55 | 284 | 1.0 | 3.0 | 0.00 | 0.00 | 0.00 | 82 | 1017.1 |
| 20260505221537 | 54 | 313 | 0.0 | 2.0 | 0.00 | 0.00 | 0.00 | 85 | 1017.3 |
| 20260505220041 | 52 | 313 | 0.0 | 3.0 | 0.00 | 0.00 | 0.00 | 88 | 1017.2 |
| 20260505214532 | 51 | 88 | 0.0 | 2.0 | 0.00 | 0.00 | 0.00 | 90 | 1017.2 |
| 20260505213048 | 49 | 124 | 1.0 | 3.0 | 0.00 | 0.00 | 0.00 | 93 | 1017.2 |